TimeEST,TemperatureF,Dew PointF,Humidity,Sea Level PressureIn,VisibilityMPH,Wind Direction,Wind SpeedMPH,Gust SpeedMPH,PrecipitationIn,Events,Conditions,WindDirDegrees,DateUTC
12:52 AM,41.0,39.0,93,30.28,9.0,North,5.8,-,N/A,,Clear,10,2012-12-04 05:52:00
1:52 AM,39.9,39.0,97,30.29,9.0,Calm,Calm,-,N/A,,Clear,0,2012-12-04 06:52:00
2:52 AM,39.0,37.0,93,30.29,7.0,North,3.5,-,N/A,,Clear,10,2012-12-04 07:52:00
3:52 AM,39.0,37.0,93,30.28,7.0,North,4.6,-,N/A,,Clear,10,2012-12-04 08:52:00
4:52 AM,39.9,37.9,93,30.28,9.0,North,4.6,-,N/A,,Mostly Cloudy,360,2012-12-04 09:52:00
5:52 AM,41.0,37.9,89,30.29,9.0,NNE,4.6,-,N/A,,Overcast,20,2012-12-04 10:52:00
6:52 AM,43.0,41.0,93,30.29,10.0,NNE,3.5,-,N/A,,Overcast,30,2012-12-04 11:52:00
7:41 AM,44.6,41.0,87,30.29,4.0,ENE,4.6,-,0.01,Rain,Light Rain,60,2012-12-04 12:41:00
7:52 AM,44.1,41.0,89,30.29,4.0,NE,4.6,-,0.01,Rain,Light Rain,50,2012-12-04 12:52:00
8:18 AM,44.6,41.0,87,30.29,7.0,ENE,4.6,-,0.00,,Overcast,60,2012-12-04 13:18:00
8:47 AM,44.6,42.8,93,30.29,8.0,ENE,8.1,-,0.00,,Overcast,60,2012-12-04 13:47:00
8:52 AM,45.0,42.1,90,30.29,8.0,ENE,8.1,-,0.00,,Overcast,60,2012-12-04 13:52:00
9:23 AM,44.6,42.8,93,30.29,2.5,East,6.9,-,0.01,Rain,Light Rain,80,2012-12-04 14:23:00
9:30 AM,44.6,42.8,93,30.29,3.0,East,6.9,-,0.01,Rain,Light Rain,80,2012-12-04 14:30:00
9:40 AM,44.6,42.8,93,30.29,2.5,ENE,8.1,-,0.02,Rain,Light Rain,60,2012-12-04 14:40:00
9:49 AM,44.6,44.6,100,30.29,4.0,ENE,5.8,-,0.02,Rain,Light Rain,60,2012-12-04 14:49:00
9:52 AM,45.0,44.1,97,30.29,5.0,ENE,5.8,-,0.02,,Overcast,60,2012-12-04 14:52:00
10:36 AM,46.4,46.4,100,30.28,5.0,NE,5.8,-,0.01,Rain,Light Rain,50,2012-12-04 15:36:00
10:52 AM,48.0,46.9,96,30.27,4.0,ENE,3.5,-,0.01,,Overcast,60,2012-12-04 15:52:00
11:52 AM,48.9,48.0,97,30.24,3.0,East,3.5,-,N/A,,Overcast,80,2012-12-04 16:52:00
12:11 PM,50.0,48.2,94,30.23,3.0,ENE,4.6,-,N/A,,Overcast,70,2012-12-04 17:11:00
12:49 PM,51.8,51.8,100,30.21,3.0,ENE,6.9,-,N/A,,Mostly Cloudy,70,2012-12-04 17:49:00
12:52 PM,53.1,51.1,93,30.21,3.0,ENE,6.9,-,N/A,,Mostly Cloudy,70,2012-12-04 17:52:00
1:52 PM,54.0,53.1,97,30.18,4.0,East,4.6,-,N/A,,Scattered Clouds,100,2012-12-04 18:52:00
2:52 PM,57.0,54.0,89,30.16,8.0,South,11.5,-,N/A,,Clear,180,2012-12-04 19:52:00
3:52 PM,55.9,54.0,93,30.16,6.0,South,5.8,-,N/A,,Scattered Clouds,190,2012-12-04 20:52:00
4:05 PM,55.4,53.6,94,30.15,5.0,SSW,5.8,-,N/A,,Mostly Cloudy,210,2012-12-04 21:05:00
4:13 PM,55.4,53.6,94,30.15,5.0,SSW,3.5,-,N/A,,Mostly Cloudy,200,2012-12-04 21:13:00
4:52 PM,55.0,53.1,93,30.14,7.0,South,5.8,-,N/A,,Overcast,180,2012-12-04 21:52:00
5:52 PM,55.4,53.6,94,30.13,5.0,SSW,3.5,-,N/A,,Overcast,210,2012-12-04 22:52:00
6:52 PM,54.0,53.1,97,30.12,6.0,SSW,4.6,-,N/A,,Overcast,200,2012-12-04 23:52:00
7:52 PM,54.0,53.1,97,30.10,5.0,Calm,Calm,-,N/A,,Overcast,0,2012-12-05 00:52:00
8:52 PM,53.1,52.0,96,30.06,5.0,SSW,3.5,-,N/A,,Overcast,210,2012-12-05 01:52:00
9:52 PM,52.0,51.1,97,30.05,4.0,Calm,Calm,-,N/A,,Overcast,0,2012-12-05 02:52:00
10:06 PM,50.0,50.0,100,30.05,1.8,Calm,Calm,-,N/A,,Overcast,0,2012-12-05 03:06:00
10:11 PM,50.0,50.0,100,30.04,0.8,Calm,Calm,-,N/A,,Mist,0,2012-12-05 03:11:00
10:17 PM,48.2,48.2,100,30.04,0.2,Calm,Calm,-,N/A,Fog,Fog,0,2012-12-05 03:17:00
10:30 PM,51.8,50.0,94,30.03,1.0,Calm,Calm,-,N/A,,Mist,0,2012-12-05 03:30:00
10:39 PM,50.0,50.0,100,30.03,0.5,Calm,Calm,-,N/A,Fog,Fog,0,2012-12-05 03:39:00
10:52 PM,50.0,48.9,96,30.03,0.2,Calm,Calm,-,N/A,Fog,Fog,0,2012-12-05 03:52:00
11:31 PM,46.4,46.4,100,30.01,1.0,Calm,Calm,-,N/A,,Mist,0,2012-12-05 04:31:00
11:37 PM,48.2,48.2,100,30.00,2.0,Calm,Calm,-,N/A,,Scattered Clouds,0,2012-12-05 04:37:00
11:42 PM,48.2,48.2,100,30.00,1.0,South,3.5,-,N/A,,Mist,190,2012-12-05 04:42:00
11:45 PM,48.2,48.2,100,30.00,0.5,South,4.6,-,N/A,Fog,Fog,190,2012-12-05 04:45:00
11:52 PM,48.0,46.9,96,29.99,0.5,Calm,Calm,-,N/A,Fog,Fog,0,2012-12-05 04:52:00
11:57 PM,48.2,48.2,100,29.99,1.0,Calm,Calm,-,N/A,,Mist,0,2012-12-05 04:57:00